Location: Star Hoppers Observatory
(42.7905°N, 83.6127°W)
Time: 15:00:37
(UTC-05:00)

Amateur Radio Satellites - All Passes

Search period start: 01 March 2017 14:30
Search period end: 02 March 2017 14:30
Location: Star Hoppers Observatory, 42.7905°N, 83.6127°W

Satellite Date Start Highest point End Downlink Frequencies (MHz)
Time Altitude Azimuth
AO-7 01 Mar 14:31:29 14:39:35 57° 64° (ENE) 14:47:40 .
VELOX 1 01 Mar 14:32:40 14:34:07 11° 300° (WNW) 14:35:33 145.980
Oscar 19 01 Mar 14:41:27 14:44:14 15° 270° (W) 14:47:02 437.125/150
BEESAT 3 01 Mar 14:47:01 14:50:53 47° 242° (WSW) 14:54:43 437.485
NO-84 01 Mar 14:54:32 14:55:47 12° 124° (ESE) 14:57:02 435.350 FM
ITAMSAT 1 01 Mar 15:22:25 15:27:31 55° 259° (W) 15:32:40 435.822/435.867
PCSat 01 Mar 15:35:08 15:40:29 65° 116° (ESE) 15:45:52 145.827
BEESAT 2 01 Mar 15:35:49 15:39:32 35° 244° (WSW) 15:43:13 435.950
RS-15 01 Mar 15:40:26 15:50:01 30° 102° (ESE) 15:59:49 29.354- 29.394
MOZHAYETS 4 01 Mar 15:44:41 15:49:04 42° 98° (E) 15:53:23
ITUPSAT 1 01 Mar 16:02:07 16:06:47 53° 288° (WNW) 16:11:25 437.325
BEESAT 01 Mar 16:05:32 16:10:08 48° 289° (WNW) 16:14:42 436.000
AO-7 01 Mar 16:25:14 16:32:38 34° 263° (W) 16:40:04 .
NO-84 01 Mar 16:29:45 16:32:52 63° 323° (NW) 16:36:17 435.350 FM
DOVE 4 01 Mar 16:44:28 16:47:02 16° 63° (ENE) 16:49:37 437.250
CUBESAT XI-V 01 Mar 16:56:46 17:01:04 38° 97° (E) 17:05:21 437.345
KAITUO 1B 01 Mar 17:03:58 17:06:28 17° 66° (ENE) 17:08:58 145.475/437.950
CUTE-I 01 Mar 17:05:12 17:09:43 29° 65° (ENE) 17:14:17 437.470
XW-2F 01 Mar 17:15:54 17:19:09 27° 70° (ENE) 17:22:26 145.980 - 146.000
KKS-1 01 Mar 17:17:38 17:22:08 83° 285° (WNW) 17:26:37 437.445
PCSat 01 Mar 17:20:05 17:24:20 23° 316° (NW) 17:28:38 145.827
MOZHAYETS 4 01 Mar 17:22:30 17:25:56 21° 295° (WNW) 17:29:20
XW-2D 01 Mar 17:23:14 17:26:45 34° 71° (ENE) 17:30:16 145.860 - 145.880
XW-2B 01 Mar 17:28:19 17:31:54 38° 72° (ENE) 17:35:31 145.730 - 145.750
NUDT-PHONESAT 01 Mar 17:31:53 17:35:19 34° 71° (ENE) 17:38:46 437.300
XW-2C 01 Mar 17:37:01 17:40:44 49° 74° (ENE) 17:44:30 145.795 - 145.815
STARS 01 Mar 17:38:12 17:42:40 74° 103° (ESE) 17:47:05 437.465
RS-15 01 Mar 17:49:06 18:01:08 82° 304° (NW) 18:13:37 29.354- 29.394
HO-68 01 Mar 17:50:01 17:55:36 25° 57° (ENE) 18:01:10 435.675
LilacSat-2 01 Mar 17:58:54 18:02:47 84° 256° (WSW) 18:06:42 437.200
M-CUBED/EXP-1 PRIME 01 Mar 18:04:02 18:07:53 49° 106° (ESE) 18:12:00 437.505
NO-84 01 Mar 18:08:56 18:11:09 16° 344° (NNW) 18:13:31 435.350 FM
DOVE 4 01 Mar 18:20:21 18:24:20 46° 262° (W) 18:28:26 437.250
CUTE 1.7 + AOD 2 01 Mar 18:32:30 18:36:02 26° 68° (ENE) 18:39:34 437.475
CUBESAT XI-V 01 Mar 18:34:39 18:38:13 23° 294° (WNW) 18:41:47 437.345
KAITUO 1B 01 Mar 18:36:41 18:40:13 36° 262° (W) 18:43:46 145.475/437.950
CUTE-I 01 Mar 18:44:38 18:49:36 39° 262° (W) 18:54:38 437.470
XW-2F 01 Mar 18:50:15 18:53:16 22° 266° (W) 18:56:19 145.980 - 146.000
AAUSAT CUBESAT 2 01 Mar 18:56:23 18:58:52 16° 64° (ENE) 19:01:22 437.432
XW-2D 01 Mar 18:58:28 19:01:03 17° 267° (W) 19:03:40 145.860 - 145.880
XW-2A 01 Mar 19:01:31 19:04:55 81° 76° (ENE) 19:08:22 145.665 - 145.685
XW-2B 01 Mar 19:03:54 19:06:16 16° 268° (W) 19:08:38 145.730 - 145.750
NUDT-PHONESAT 01 Mar 19:06:53 19:09:21 17° 267° (W) 19:11:51 437.300
XW-2C 01 Mar 19:13:38 19:15:14 12° 270° (W) 19:16:50 145.795 - 145.815
STARS 01 Mar 19:16:33 19:18:24 12° 300° (WNW) 19:20:15 437.465
STRAND 1 01 Mar 19:18:22 19:22:52 30° 96° (E) 19:27:19 437.568
SEEDS 01 Mar 19:19:46 19:23:53 55° 74° (ENE) 19:28:01 437.485
AO-73 01 Mar 19:28:22 19:31:23 18° 64° (ENE) 19:34:26 145.935
Oscar 11 01 Mar 19:29:27 19:31:58 15° 63° (ENE) 19:34:29 .
YUBILEINY 01 Mar 19:32:00 19:37:00 16° 57° (ENE) 19:41:59 435.215
HO-68 01 Mar 19:35:33 19:42:41 70° 256° (WSW) 19:49:52 435.675
M-CUBED/EXP-1 PRIME 01 Mar 19:39:39 19:42:03 16° 299° (WNW) 19:44:33 437.505
CUBEBUG 2 01 Mar 19:40:21 19:44:48 64° 74° (ENE) 19:49:25 437.445
NO-84 01 Mar 19:48:18 19:50:04 13° 6° (N) 19:51:54 435.350 FM
RS-15 01 Mar 20:05:04 20:15:50 34° 333° (NNW) 20:26:47 29.354- 29.394
UWE-3 01 Mar 20:07:18 20:11:47 77° 76° (ENE) 20:16:26 435.000/436.395/437.385
CUTE 1.7 + AOD 2 01 Mar 20:08:03 20:11:46 29° 265° (W) 20:15:29 437.475
ZACube-1 01 Mar 20:17:11 20:21:37 59° 74° (ENE) 20:26:09 437.345
AAUSAT CUBESAT 2 01 Mar 20:29:56 20:33:57 47° 261° (W) 20:37:58 437.432
STRAND 1 01 Mar 20:57:24 21:02:03 35° 293° (WNW) 21:06:40 437.568
SEEDS 01 Mar 20:57:53 20:59:55 13° 270° (W) 21:01:56 437.485
AO-73 01 Mar 21:02:49 21:07:12 50° 261° (W) 21:11:39 145.935
Oscar 11 01 Mar 21:03:22 21:07:38 55° 260° (W) 21:11:56 .
DELFI C3 01 Mar 21:18:23 21:22:19 69° 75° (ENE) 21:26:15 145.870
CUBEBUG 2 01 Mar 21:19:42 21:21:53 13° 272° (W) 21:24:06 437.445
NO-84 01 Mar 21:25:30 21:28:48 26° 27° (NNE) 21:32:17 435.350 FM
YUBILEINY 01 Mar 21:26:45 21:35:31 75° 80° (E) 21:44:12 435.215
HO-68 01 Mar 21:29:34 21:31:37 11° 274° (W) 21:33:41 435.675
SO-50 01 Mar 21:39:18 21:43:58 82° 124° (SE) 21:48:37 436.795
UWE-3 01 Mar 21:47:42 21:48:49 11° 273° (W) 21:49:57 435.000/436.395/437.385
FO-29 01 Mar 21:49:29 21:53:52 17° 84° (E) 21:57:59 435.910
ZACube-1 01 Mar 21:55:52 21:58:17 14° 271° (W) 22:00:44 437.345
LO-87 01 Mar 22:05:35 22:08:35 27° 70° (ENE) 22:11:37 145.935 - 145.965
O/OREOS (USA 219) 01 Mar 22:11:13 22:15:39 68° 111° (ESE) 22:20:09 437.305
ESTCUBE 1 01 Mar 22:12:57 22:16:23 22° 65° (ENE) 22:19:50 437.505/2401.250
PRISM 01 Mar 22:19:53 22:23:58 82° 286° (WNW) 22:28:04 437.425
RS-15 01 Mar 22:23:37 22:33:30 26° 8° (N) 22:43:17 29.354- 29.394
TIGRISAT 01 Mar 22:24:51 22:29:22 45° 98° (E) 22:33:46 435.000
UNISAT 6 01 Mar 22:26:05 22:30:40 50° 99° (E) 22:35:08 437.425
PCSat 01 Mar 22:40:27 22:43:02 13° 35° (NE) 22:45:36 145.827
NO-84 01 Mar 23:02:45 23:06:45 67° 223° (SW) 23:11:00 435.350 FM
SO-50 01 Mar 23:21:56 23:25:01 17° 322° (NW) 23:28:04 436.795
SPROUT 01 Mar 23:22:03 23:25:44 29° 69° (ENE) 23:29:27 437.525
YUBILEINY 01 Mar 23:24:57 23:31:21 24° 281° (W) 23:37:43 435.215
DX 1 01 Mar 23:27:41 23:30:47 20° 65° (ENE) 23:33:55 434.975-435.025
UKube-1 01 Mar 23:30:11 23:32:41 15° 63° (ENE) 23:35:11 .
FO-29 01 Mar 23:32:26 23:40:01 90° 96° (E) 23:46:44 435.910
LO-87 01 Mar 23:39:32 23:42:03 18° 266° (W) 23:44:36 145.935 - 145.965
DUCHIFAT 1 01 Mar 23:42:36 23:46:02 23° 94° (E) 23:49:26 145.980
50 SAT 01 Mar 23:45:13 23:48:29 39° 72° (ENE) 23:51:45 437.505
ESTCUBE 1 01 Mar 23:48:44 23:52:56 39° 262° (W) 23:57:11 437.505/2401.250
VELOX 1 01 Mar 23:51:32 23:55:54 77° 74° (ENE) 00:00:18 145.980
O/OREOS (USA 219) 01 Mar 23:53:00 23:55:33 15° 309° (NW) 23:58:08 437.305
EO-79 01 Mar 23:58:58 00:03:03 41° 98° (E) 00:07:06 145.935-145.965
TIGRISAT 02 Mar 00:02:15 00:05:42 21° 296° (WNW) 00:09:06 435.000
UNISAT 6 02 Mar 00:03:43 00:06:58 19° 296° (WNW) 00:10:11 437.425
NANOSAT C BR1 02 Mar 00:12:36 00:16:49 55° 100° (E) 00:20:59 145.865
POLYITAN 1 02 Mar 00:18:00 00:22:19 69° 102° (ESE) 00:26:34 437.675
BUGSAT 1 02 Mar 00:19:01 00:22:13 20° 94° (E) 00:25:23 437.445
AIST 2D 02 Mar 00:21:06 00:24:35 51° 285° (WNW) 00:27:59 435.315
QB50P2 02 Mar 00:21:12 00:25:31 81° 101° (E) 00:29:48 145.880/145.840
PCSat 02 Mar 00:22:11 00:27:35 61° 56° (ENE) 00:32:56 145.827
RS-15 02 Mar 00:38:17 00:50:10 48° 40° (NE) 01:01:37 29.354- 29.394
SPROUT 02 Mar 00:58:06 01:01:38 25° 265° (W) 01:05:11 437.525
DX 1 02 Mar 01:02:38 01:06:42 40° 261° (W) 01:10:48 434.975-435.025
UKube-1 02 Mar 01:04:04 01:08:17 54° 259° (W) 01:12:31 .
Oscar 19 02 Mar 01:10:42 01:14:42 22° 93° (E) 01:18:41 437.125/150
DUCHIFAT 1 02 Mar 01:17:56 01:21:43 32° 291° (WNW) 01:25:29 145.980
FO-29 02 Mar 01:18:48 01:23:54 20° 306° (NW) 01:28:42 435.910
50 SAT 02 Mar 01:20:17 01:21:46 12° 268° (W) 01:23:17 437.505
ITUPSAT 1 02 Mar 01:32:47 01:36:33 23° 65° (ENE) 01:40:19 437.325
EO-79 02 Mar 01:35:31 01:38:31 19° 295° (WNW) 01:41:30 145.935-145.965
BEESAT 02 Mar 01:35:42 01:39:34 25° 65° (ENE) 01:43:28 436.000
NANOSAT C BR1 02 Mar 01:49:39 01:52:05 15° 297° (WNW) 01:54:29 145.865
BUGSAT 1 02 Mar 01:53:45 01:57:39 36° 290° (WNW) 02:01:33 437.445
POLYITAN 1 02 Mar 01:55:45 01:57:31 12° 299° (WNW) 01:59:16 437.675
QB50P2 02 Mar 01:59:42 02:00:39 11° 300° (WNW) 02:01:35 145.880/145.840
PCSat 02 Mar 02:06:38 02:10:29 20° 254° (WSW) 02:14:18 145.827
AO-7 02 Mar 02:34:25 02:38:47 15° 88° (E) 02:43:06 .
Gurwin Techsat 1B 02 Mar 02:36:24 02:41:45 78° 102° (ESE) 02:47:05 435.225
KKS-1 02 Mar 02:43:22 02:44:37 11° 59° (ENE) 02:45:53 437.445
MOZHAYETS 4 02 Mar 02:46:59 02:51:23 44° 71° (ENE) 02:55:48
Oscar 19 02 Mar 02:49:21 02:54:13 45° 290° (WNW) 02:59:05 437.125/150
RS-15 02 Mar 02:51:13 03:03:14 63° 246° (WSW) 03:14:43 29.354- 29.394
ITUPSAT 1 02 Mar 03:09:35 03:14:07 41° 261° (W) 03:18:42 437.325
BEESAT 02 Mar 03:12:43 03:17:09 38° 262° (W) 03:21:37 436.000
AO-85 02 Mar 03:21:57 03:26:25 56° 120° (ESE) 03:30:34 145.980
ITAMSAT 1 02 Mar 03:34:20 03:39:25 49° 100° (E) 03:44:27 435.822/435.867
CUBESAT XI-V 02 Mar 04:00:35 04:04:56 41° 71° (ENE) 04:09:17 437.345
KKS-1 02 Mar 04:16:05 04:20:30 83° 256° (WSW) 04:24:59 437.445
Gurwin Techsat 1B 02 Mar 04:18:00 04:21:02 16° 301° (WNW) 04:24:04 435.225
AO-7 02 Mar 04:24:28 04:32:49 78° 108° (ESE) 04:41:06 .
MOZHAYETS 4 02 Mar 04:25:23 04:28:44 20° 268° (W) 04:32:07
SO-50 02 Mar 04:30:41 04:33:22 15° 36° (NE) 04:36:01 436.795
STARS 02 Mar 04:35:12 04:39:34 71° 73° (ENE) 04:43:57 437.465
BEESAT 3 02 Mar 04:38:07 04:41:07 21° 113° (ESE) 04:44:10 437.485
M-CUBED/EXP-1 PRIME 02 Mar 04:51:32 04:54:45 68° 70° (ENE) 04:58:03 437.505
AO-85 02 Mar 05:03:54 05:07:06 19° 317° (NW) 05:10:09 145.980
RS-15 02 Mar 05:08:15 05:12:55 13° 268° (W) 05:17:32 29.354- 29.394
ITAMSAT 1 02 Mar 05:14:30 05:18:32 23° 297° (WNW) 05:22:34 435.822/435.867
Tancredo 1 02 Mar 05:25:25 05:26:53 12° 131° (SE) 05:28:20 437.200
BEESAT 2 02 Mar 05:27:44 05:31:12 30° 115° (ESE) 05:34:43 435.950
CUBESAT XI-V 02 Mar 05:38:59 05:42:28 21° 267° (W) 05:45:57 437.345
KAITUO 1B 02 Mar 06:07:37 06:10:24 19° 94° (E) 06:13:10 145.475/437.950
SO-50 02 Mar 06:09:58 06:14:30 88° 56° (ENE) 06:18:58 436.795
BEESAT 3 02 Mar 06:14:53 06:18:30 35° 310° (NW) 06:22:13 437.485
STARS 02 Mar 06:15:16 06:16:23 11° 271° (W) 06:17:31 437.465
DOVE 4 02 Mar 06:17:06 06:21:44 43° 98° (E) 06:26:35 437.250
AO-7 02 Mar 06:18:14 06:24:46 27° 307° (NW) 06:31:18 .
XW-2F 02 Mar 06:20:56 06:24:25 33° 97° (E) 06:27:51 145.980 - 146.000
XW-2D 02 Mar 06:28:49 06:32:30 45° 99° (E) 06:36:08 145.860 - 145.880
XW-2B 02 Mar 06:33:59 06:37:43 50° 99° (E) 06:41:23 145.730 - 145.750
STRAND 1 02 Mar 06:34:47 06:39:40 46° 70° (ENE) 06:44:36 437.568
NUDT-PHONESAT 02 Mar 06:35:15 06:38:51 42° 98° (E) 06:42:24 437.300
O/OREOS (USA 219) 02 Mar 06:41:58 06:45:09 18° 53° (NE) 06:48:20 437.305
XW-2C 02 Mar 06:42:49 06:46:38 67° 101° (E) 06:50:23 145.795 - 145.815
ISS 02 Mar 06:47:54 06:51:12 75° 143° (SE) 06:54:30 437.550
Tancredo 1 02 Mar 06:59:27 07:02:42 81° 327° (NNW) 07:05:58 437.200
CUTE-I 02 Mar 07:00:16 07:05:41 78° 103° (ESE) 07:11:03 437.470
HO-68 02 Mar 07:03:21 07:08:41 22° 92° (E) 07:13:58 435.675
BEESAT 2 02 Mar 07:05:32 07:08:58 27° 313° (NW) 07:12:27 435.950
LilacSat-2 02 Mar 07:05:36 07:09:23 60° 285° (WNW) 07:13:07 437.200
CUBEBUG 2 02 Mar 07:31:57 07:34:25 14° 89° (E) 07:36:51 437.445
KAITUO 1B 02 Mar 07:41:12 07:44:27 28° 290° (WNW) 07:47:40 145.475/437.950
CUTE 1.7 + AOD 2 02 Mar 07:51:26 07:55:28 43° 98° (E) 07:59:28 437.475
XW-2A 02 Mar 07:55:20 07:58:49 77° 102° (ESE) 08:02:15 145.665 - 145.685
DOVE 4 02 Mar 07:55:21 07:59:11 24° 293° (WNW) 08:03:09 437.250
XW-2F 02 Mar 07:55:44 07:58:19 18° 294° (WNW) 08:00:52 145.980 - 146.000
UWE-3 02 Mar 07:57:27 08:00:17 16° 90° (E) 08:03:02 435.000/436.395/437.385
XW-2D 02 Mar 08:04:18 08:06:19 14° 295° (WNW) 08:08:19 145.860 - 145.880
FO-29 02 Mar 08:05:27 08:07:23 11° 46° (NE) 08:09:20 435.910
ZACube-1 02 Mar 08:07:17 08:08:34 11° 88° (E) 08:09:50 437.345
XW-2B 02 Mar 08:09:46 08:11:28 13° 296° (WNW) 08:13:10 145.730 - 145.750
NUDT-PHONESAT 02 Mar 08:10:22 08:12:25 14° 295° (WNW) 08:14:28 437.300
AAUSAT CUBESAT 2 02 Mar 08:11:32 08:14:52 23° 94° (E) 08:18:10 437.432
STRAND 1 02 Mar 08:15:04 08:19:03 22° 267° (W) 08:23:04 437.568
XW-2C 02 Mar 08:20:13 08:20:15 10° 298° (WNW) 08:20:19 145.795 - 145.815
O/OREOS (USA 219) 02 Mar 08:20:25 08:24:54 54° 252° (WSW) 08:29:23 437.305
ISS 02 Mar 08:25:10 08:27:58 25° 343° (NNW) 08:30:46 437.550
YUBILEINY 02 Mar 08:36:22 08:41:24 17° 76° (ENE) 08:46:24 435.215
Tancredo 1 02 Mar 08:36:45 08:39:20 21° 346° (NNW) 08:41:57 437.200
SEEDS 02 Mar 08:38:07 08:42:19 83° 281° (W) 08:46:28 437.485
CUTE-I 02 Mar 08:41:56 08:45:03 16° 301° (WNW) 08:48:10 437.470
HO-68 02 Mar 08:49:52 08:57:01 72° 290° (WNW) 09:04:06 435.675
Oscar 11 02 Mar 08:50:07 08:53:41 25° 95° (E) 08:57:13 .
AO-73 02 Mar 08:50:16 08:54:13 29° 95° (E) 08:58:05 145.935
CUBEBUG 2 02 Mar 09:06:44 09:11:28 64° 286° (WNW) 09:16:05 437.445
PRISM 02 Mar 09:09:32 09:13:35 77° 75° (ENE) 09:17:40 437.425
TIGRISAT 02 Mar 09:23:52 09:28:11 42° 70° (ENE) 09:32:35 435.000
UNISAT 6 02 Mar 09:25:14 09:29:36 47° 72° (ENE) 09:34:05 437.425
CUTE 1.7 + AOD 2 02 Mar 09:28:12 09:30:58 17° 295° (WNW) 09:33:44 437.475
UWE-3 02 Mar 09:32:31 09:37:04 54° 287° (WNW) 09:41:29 435.000/436.395/437.385
ZACube-1 02 Mar 09:40:50 09:45:23 73° 285° (WNW) 09:49:47 437.345
FO-29 02 Mar 09:43:26 09:50:29 49° 67° (ENE) 09:57:56 435.910
AAUSAT CUBESAT 2 02 Mar 09:46:45 09:50:19 29° 291° (WNW) 09:53:51 437.432
ISS 02 Mar 10:02:56 10:05:16 18° 3° (N) 10:07:36 437.550
Tancredo 1 02 Mar 10:14:08 10:16:26 18° 6° (N) 10:18:43 437.200
Oscar 11 02 Mar 10:26:02 10:29:49 30° 291° (WNW) 10:33:33 .
AO-73 02 Mar 10:26:32 10:30:21 27° 292° (WNW) 10:34:05 145.935
YUBILEINY 02 Mar 10:27:57 10:36:46 84° 96° (E) 10:45:36 435.215
DELFI C3 02 Mar 10:29:16 10:33:12 79° 284° (WNW) 10:37:08 145.870
DUCHIFAT 1 02 Mar 10:35:26 10:38:29 20° 65° (ENE) 10:41:34 145.980
HO-68 02 Mar 10:39:42 10:43:31 15° 309° (NW) 10:47:19 435.675
EO-79 02 Mar 10:51:59 10:55:49 34° 70° (ENE) 10:59:41 145.935-145.965
AIST 2D 02 Mar 10:55:49 10:59:18 58° 75° (ENE) 11:02:50 435.315
TIGRISAT 02 Mar 11:01:41 11:05:02 20° 268° (W) 11:08:28 435.000
UNISAT 6 02 Mar 11:03:26 11:06:34 18° 269° (W) 11:09:46 437.425
LO-87 02 Mar 11:04:45 11:07:58 29° 97° (E) 11:11:11 145.935 - 145.965
NANOSAT C BR1 02 Mar 11:05:08 11:09:09 43° 71° (ENE) 11:13:11 145.865
BUGSAT 1 02 Mar 11:10:04 11:12:38 16° 64° (ENE) 11:15:13 437.445
POLYITAN 1 02 Mar 11:10:55 11:15:04 56° 73° (ENE) 11:19:17 437.675
QB50P2 02 Mar 11:14:06 11:18:19 65° 73° (ENE) 11:22:33 145.880/145.840
FO-29 02 Mar 11:28:47 11:35:33 39° 266° (W) 11:42:46 435.910
ISS 02 Mar 11:39:24 11:42:28 33° 23° (NNE) 11:45:30 437.550
ESTCUBE 1 02 Mar 11:40:02 11:44:15 39° 98° (E) 11:48:27 437.505/2401.250
VELOX 1 02 Mar 11:42:16 11:44:29 14° 91° (E) 11:46:42 145.980
Tancredo 1 02 Mar 11:50:14 11:53:19 39° 26° (NNE) 11:56:23 437.200
AO-85 02 Mar 11:52:28 11:56:20 56° 54° (NE) 12:00:13 145.980
DUCHIFAT 1 02 Mar 12:09:58 12:13:53 38° 262° (W) 12:17:52 145.980
Gurwin Techsat 1B 02 Mar 12:20:35 12:24:13 19° 61° (ENE) 12:27:52 435.225
Oscar 19 02 Mar 12:28:06 12:32:45 36° 68° (ENE) 12:37:25 437.125/150
YUBILEINY 02 Mar 12:28:11 12:34:42 22° 297° (WNW) 12:41:13 435.215
EO-79 02 Mar 12:28:25 12:31:39 21° 266° (W) 12:34:55 145.935-145.965
LO-87 02 Mar 12:38:43 12:41:13 18° 293° (WNW) 12:43:43 145.935 - 145.965
50 SAT 02 Mar 12:41:59 12:45:14 37° 99° (E) 12:48:29 437.505
SPROUT 02 Mar 12:42:01 12:46:14 49° 99° (E) 12:50:24 437.525
NANOSAT C BR1 02 Mar 12:42:21 12:45:04 17° 268° (W) 12:47:49 145.865
BUGSAT 1 02 Mar 12:43:41 12:47:36 45° 261° (W) 12:51:37 437.445
POLYITAN 1 02 Mar 12:49:09 12:51:13 13° 270° (W) 12:53:17 437.675
DX 1 02 Mar 12:49:48 12:53:41 30° 97° (E) 12:57:32 434.975-435.025
UKube-1 02 Mar 12:50:40 12:54:05 22° 95° (E) 12:57:28 .
QB50P2 02 Mar 12:53:12 12:54:31 11° 271° (W) 12:55:52 145.880/145.840
BEESAT 3 02 Mar 12:53:40 12:56:43 20° 44° (NE) 12:59:45 437.485
ISS 02 Mar 13:15:53 13:18:58 38° 221° (SW) 13:22:03 437.550
VELOX 1 02 Mar 13:16:56 13:21:18 59° 287° (WNW) 13:25:39 145.980
ESTCUBE 1 02 Mar 13:17:26 13:20:48 21° 295° (WNW) 13:24:09 437.505/2401.250
ITAMSAT 1 02 Mar 13:17:41 13:19:32 12° 56° (ENE) 13:21:24 435.822/435.867
Tancredo 1 02 Mar 13:26:39 13:29:29 28° 223° (SW) 13:32:17 437.200
AO-7 02 Mar 13:33:43 13:40:23 28° 53° (NE) 13:47:00 .
AO-85 02 Mar 13:34:27 13:36:15 13° 250° (WSW) 13:38:04 145.980
BEESAT 2 02 Mar 13:44:25 13:47:54 26° 46° (NE) 13:51:21 435.950
Gurwin Techsat 1B 02 Mar 13:58:24 14:03:39 62° 258° (WSW) 14:08:57 435.225
Oscar 19 02 Mar 14:07:42 14:12:06 28° 265° (W) 14:16:32 437.125/150
50 SAT 02 Mar 14:16:15 14:18:01 13° 295° (WNW) 14:19:47 437.505
SPROUT 02 Mar 14:19:03 14:21:45 16° 296° (WNW) 14:24:27 437.525
